Location: G�migny
(47.9646°N, 1.6950°E)
Time: 16:40:10
(UTC+00:00)

Cosmos 1898 Rocket - Pass Details

Date: 23 October 2019
Orbit: 753 x 784 km, 74.0° (Epoch: 20 November)

Event Time Altitude Azimuth Distance (km) Brightness Sun altitude
Rises 19:08:42 0° 333° (NNW) 3,256 7.3 -23.7°
Reaches altitude 10° 19:11:07 10° 329° (NNW) 2,329 6.5 -24.1°
Maximum altitude 19:16:16 55° 253° (WSW) 937 4.1 -25.0°
Enters shadow 19:19:55 19° 182° (S) 1,783 5.3 -25.6°
